Flag for Canada Weather past 2 weeks in Charlottetown, Pr.Edward I, Canada

Now
68 °F

Passing clouds.


Feels Like: 68 °F
Forecast: 61 / 70 °F
Wind: 8 mph from Southwest

Location: Charlottetown

Current Time: Jul 24, 2014 at 3:06:32 AM

Latest Report: Jul 24, 2014 at 2:00 AM


Visibility: 12 mi

Pressure: 29.70 "Hg

Humidity: 94%

Dew point: 66 °F

Location of CharlottetownLocation

Historic Weather in Charlottetown — Graph

°F

Charlottetown temperature yesterday

Maximum temperature yesterday: 84 °F (at 3:00 PM)
Minimum temperature yesterday: 64 °F (at 5:00 AM)
Average temperature yesterday: 75 °F

Past Weeks' High & Low Weather Summary

 TemperatureHumidityPressure
High84 °F (Jul 16, 3:00 PM)100% (Jul 15, 2:50 PM)30.28 "Hg (Jul 15, 2:50 PM)
Low54 °F (Jul 20, 5:00 AM)34% (Jul 12, 3:00 PM)29.69 "Hg (Jul 23, 6:00 PM)
Average70 °F76%30.00 "Hg
* Reported Jul 9 2:00 AM — Jul 24 2:00 AM, Charlottetown, Weather by CustomWeather, © 2014

Note: Actual official high and low records may vary slightly from our data, if they occured in-between our weather recording intervals... More about our weather records

Advertising

Charlottetown weather history for previous 24 hours

 ConditionsComfort  
Time TempWeatherWind HumidityBarometerVisibility
2:00 AM
Jul 24
68 °FPassing clouds.8 mph94%29.70 "Hg12 mi
1:00 AM70 °FPassing clouds.13 mph88%29.70 "Hg15 mi
12:00 AM72 °FPassing clouds.13 mph83%29.71 "Hg15 mi
11:00 PM
Jul 23
72 °FPassing clouds.13 mph83%29.71 "Hg15 mi
10:00 PM73 °FPassing clouds.13 mph78%29.71 "Hg15 mi
9:00 PM77 °FPassing clouds.10 mph69%29.70 "Hg15 mi
8:00 PM79 °FPassing clouds.15 mph65%29.70 "Hg15 mi
7:00 PM81 °FPassing clouds.15 mph66%29.69 "Hg15 mi
6:00 PM82 °FPassing clouds.16 mph66%29.69 "Hg15 mi
5:00 PM82 °FScattered clouds.15 mph66%29.70 "Hg15 mi
4:00 PM84 °FPartly sunny.16 mph58%29.72 "Hg15 mi
3:00 PM84 °FPartly sunny.21 mph58%29.73 "Hg15 mi
2:00 PM82 °FPartly sunny.18 mph62%29.74 "Hg15 mi
1:00 PM82 °FPartly sunny.18 mph62%29.75 "Hg15 mi
12:00 PM79 °FPartly sunny.15 mph65%29.78 "Hg15 mi
11:00 AM75 °FOvercast.16 mph74%29.80 "Hg15 mi
10:00 AM72 °FOvercast.15 mph78%29.81 "Hg15 mi
9:00 AM70 °FOvercast.18 mph78%29.83 "Hg15 mi
8:00 AM68 °FPartly sunny.14 mph78%29.83 "Hg15 mi
7:00 AM66 °FPartly sunny.13 mph83%29.85 "Hg15 mi
6:00 AM66 °FPartly cloudy.12 mph83%29.85 "Hg15 mi
5:00 AM64 °FPassing clouds.12 mph88%29.85 "Hg15 mi
Weather by CustomWeather, © 2014

See weather overviewHow to use our weather pages